Location: Moscow
(55.7500°N, 37.5830°E)
Time: 05:59:41
(UTC+03:00)

Vanguard 1 Rocket - Pass Details

Date: 03 December 2021
Orbit: 651 x 4225 km, 34.3° (Epoch: 26 January)

Event Time Altitude Azimuth Distance (km) Brightness Sun altitude
Exits shadow 05:40:38 15° 233° (SW) 4,728 10.6 -23.5°
Maximum altitude 05:52:30 36° 179° (S) 4,478 10.9 -21.9°
Drops below altitude 10° 06:12:53 10° 124° (SE) 7,370 13.0 -19.0°
Sets 06:19:40 0° 117° (ESE) 8,468 13.8 -18.1°
